Location: Lugrin
(46.4033°N, 6.6674°E)
Time: 09:49:14
(UTC+00:00)

N. Korean satellite - Pass Details

Date: 04 December 2020
Orbit: 453 x 502 km, 97.2° (Epoch: 16 January)

Event Time Altitude Azimuth Distance (km) Brightness Sun altitude
Rises 04:22:31 0° 24° (NNE) 2,575 10.5 -26.3°
Reaches altitude 10° 04:24:52 10° 38° (NE) 1,696 9.7 -25.9°
Maximum altitude 04:27:54 25° 95° (E) 1,049 8.9 -25.4°
Drops below altitude 10° 04:30:57 10° 151° (SSE) 1,699 9.7 -24.8°
Sets 04:33:19 0° 165° (SSE) 2,582 10.5 -24.4°
